YAOGAN 27

Last updated on Tue Nov 21 2023 00:02:24 GMT+0000 (Coordinated Universal Time)

1 40878U 15040A 23324.54152505 .00000004 00000+0 12057-3 0 9999 2 40878 100.0882 338.1480 0007964 219.4206 140.6329 13.16003317394067

Satellite not in orbit

YAOGAN 27